Location: Bu�n Treun
(12.1333°N, 108.3167°E)
Time: 23:44:36
(UTC+00:00)

Okean 1 Rocket - Pass Details

Date: 13 July 2020
Orbit: 606 x 635 km, 82.5° (Epoch: 03 August)

Event Time Altitude Azimuth Distance (km) Brightness Sun altitude
Exits shadow 20:58:11 - 166° (SSE) 2,216 5.7 -21.0°
Reaches altitude 10° 20:58:45 10° 163° (SSE) 1,994 5.5 -20.8°
Maximum altitude 21:02:55 42° 93° (E) 895 4.3 -19.9°
Drops below altitude 10° 21:07:03 10° 22° (NNE) 1,977 6.4 -19.1°
Sets 21:09:21 0° 16° (NNE) 2,877 7.2 -18.6°
